Погода в Ла-Гран-Мот

Франция     43°33′41″N   4°05′14″E
темп.,
°C
ветер,
м/с
пор.,
м/с
влажн.,
%
обл.,
%
осадки,
мм/ч
давл.,
гПа
погр.,
м
18 апреля, вс
вс1823:00+12зсз335418 0.0 1017147
02:00+10с585498 0.0 1017307
05:00+9ссз46588 0.0 1017211
08:00+9сз58601 0.0 1018295
11:00+13ссз58465 0.0 10181724
14:00+14ссв145296 0.0 1017341
17:00+15с465099 0.0 1016300
20:00+14с7105248 0.0 1017335
19 апреля, пн
пн1923:00+11ссз510581 0.0 1019614
02:00+11сз69590 0.0 1018465
05:00+10сз58600 0.0 1018395
08:00+10сз46580 0.0 1018247
11:00+12с35495 0.0 10181141
14:00+13юз635281 0.0 1017438
17:00+13ююз545830 0.0 1015165
20:00+13юз446516 0.0 1016124
20 апреля, вт
вт2023:00+13ю22685 0.0 101765
02:00+13зюз11660 0.0 101640
05:00+11ссз33661 0.0 1016114
08:00+11ссз33615 0.0 1016114
11:00+13ю01545 0.0 1016217
14:00+13ююз546191 0.0 1016311
17:00+13ююз666899 0.0 1015401
20:00+13юз568095 0.0 1015340
21 апреля, ср
ср2123:00+13з1281100 0.3 101653
02:00+11св3489100 0.9 1016145
05:00+11ссв338596 0.0 1016161
08:00+11ссв348120 0.0 1017171
11:00+13всв12729 0.0 1018276
14:00+13ююв54765 0.1 1018326
17:00+13ю55802 0.0 1018469
20:00+13ююв33820 0.0 1018317
22 апреля, чт
чт2223:00+13ююв22828 0.0 1020254
02:00+12всв11820 0.0 1020194
05:00+11св338795 0.0 1020170
08:00+11ссв3387100 0.0 1021156
11:00+12в2275100 0.0 1021239
14:00+13ю3472100 0.0 1021229
17:00+14ю4471100 0.0 1020283
20:00+14юз347396 0.0 1019152